{"data":{"norad_id":59958,"intl_designator":"2024-107P","name":"STARLINK-31995","alt_names":[],"object_type":"PAYLOAD","status":"ACTIVE","operator":null,"country":"US","launch_date":"2024-06-05","launch_site_code":"AFETR","launch_vehicle":null,"mission":null,"orbit_class":"UNKNOWN","rcs_meters":null,"size_class":null,"mass_kg":null,"dimensions":null,"purposes":["comms"],"wikipedia_slug":null,"has_3d_model":false,"image_url":null,"decayed_at":null,"tle_current":{"epoch":"2026-09-21T08:10:17.462496Z","epoch_age_seconds":105069,"freshness":"FRESH","line1":"1 59958U 24107P   26264.34047989  .00002882  00000+0  96412-4 0  9999","line2":"2 59958  53.1566 233.7667 0001561  86.4696 273.6485 15.34397422128590","mean_motion":15.34397422,"eccentricity":0.0001561,"inclination_deg":53.1566,"raan_deg":233.7667,"arg_perigee_deg":86.4696,"mean_anomaly_deg":273.6485,"bstar":9.6412e-5,"rev_number":12859,"period_min":93.847915758555,"perigee_km":461.64304621953,"apogee_km":463.77875893472,"semimajor_km":6840.8479025771,"source":"CELESTRAK","updated_at":"2026-09-22T09:00:49.117931Z"}}}